Regional Weather Roundup
Issued by NWS

Home | Current Version | Previous Version | Text Only | Print | Product List | Glossary On
Versions: 1 2 3 4 5 6 7 8 9 10 11 12 13 14 15 16 17 18 19 20 21 22 23 24 25 26 27 28 29 30 31 32 33 34 35 36 37 38 39 40 41 42 43 44 45 46 47 48 49 50
000
ASUS43 KTOP 240208
RWRKS

WEATHER ROUNDUP FOR KANSAS
NATIONAL WEATHER SERVICE GOODLAND KS
800 PM CST THU NOV 23 2017

NOTE:  "FAIR" INDICATES FEW OR NO CLOUDS BELOW 12,000 FEET WITH NO
SIGNIFICANT WEATHER AND/OR OBSTRUCTIONS TO VISIBILITY.

KSZ001>006-013>018-027>032-041>047-240300-
NORTHWEST KANSAS

CITY           SKY/WX    TMP DP  RH WIND       PRES   REMARKS
GOODLAND       CLOUDY    57  36  45 SW16      29.92F
HAYS           PTCLDY    56  40  55 SW7       29.89F
HILL CITY      PTCLDY    57  40  52 SW6       29.87F
RUSSELL        CLOUDY    55  41  59 S10       29.87F
$$

KSZ061>065-074>080-084>089-240300-
SOUTHWEST KANSAS

CITY           SKY/WX    TMP DP  RH WIND       PRES   REMARKS
DODGE CITY     PTCLDY    56  38  50 SW7       29.94F
ELKHART        CLOUDY    57  41  55 SW13      30.00S
GARDEN CITY    PTCLDY    53  37  54 S7        29.94F
GREAT BEND     CLOUDY    54  39  57 S9        29.91F
LIBERAL        CLOUDY    51  38  60 SW8       29.97F
PRATT          CLOUDY    51  38  59 S8        29.94F
$$

KSZ066>073-081>083-090>101-240300-
SOUTHEAST KANSAS

CITY           SKY/WX    TMP DP  RH WIND       PRES   REMARKS
CHANUTE        CLEAR     49  33  54 S9        29.97S
COFFEYVILLE    CLEAR     50  31  48 S5        29.98S
HUTCHINSON     CLOUDY    54  39  57 S3        29.92F
MEDICINE LODGE   N/A     56  37  49 CALM      29.94F
NEWTON         CLOUDY    54  36  50 S13       29.94F
PARSONS        CLEAR     44  32  62 S3        29.98F
WICHITA INTL   CLEAR     48  36  63 S8        29.94F
WICHITA JABRA  CLEAR     54  37  52 S9        29.94F
WICHITA MCCONL CLEAR     49  34  56 SW8       29.94F
WINFIELD       CLEAR     49  35  58 SE3       29.97S
$$

KSZ007>012-019>026-033>040-048>060-102>105-240300-
NORTHEAST KANSAS

CITY           SKY/WX    TMP DP  RH WIND       PRES   REMARKS
CONCORDIA      PTCLDY    61  40  45 S16       29.85F
EMPORIA        CLOUDY    52  35  52 S12       29.93S
LAWRENCE       CLOUDY    46  37  71 E5        29.93S
MANHATTAN      CLOUDY    45  37  73 CALM      29.89F
MARYSVILLE     CLOUDY    55  37  50 S6        29.87F
OLATHE IND     CLEAR     47  36  65 S7        29.94F
OLATHE EXE     CLEAR     49  36  61 S7        29.93F
SALINA         CLOUDY    55  39  54 S8        29.89F
TOPEKA BILLARD CLOUDY    51  38  60 SE5       29.91S
TOPEKA FORBES  CLOUDY    54  38  54 S8        29.91F
$$



USA.gov is the U.S. government's official web portal to all federal, state and local government web resources and services.